GFSGL_850_rhum_105.txt.gz
RH
86 92 93 96 99 98 98 99 98 92 90 91 89 87 84 83 82 84 83 74 70 84 82 73 69 66 62 62 68 73 84 86 97 98 97 83 86 98 95 100 99 97 98
86 99 94 90 93 94 98 96 91 92 93 96 90 82 78 80 79 86 79 67 79 78 68 68 67 63 76 84 87 90 90 92 99 100 99 100 100 100 99 100 97 92 98
77 99 94 97 89 86 86 90 89 88 88 88 91 94 90 83 77 71 75 78 78 76 71 69 73 91 98 97 97 99 100 99 100 100 98 100 98 98 95 95 98 99 100
72 82 99 99 91 86 86 86 82 75 73 79 84 85 87 84 81 81 80 80 78 79 83 93 97 98 99 100 95 96 100 100 98 95 99 100 95 97 100 99 98 100 99
80 74 82 92 89 90 92 89 74 69 78 85 90 89 86 87 88 90 92 93 93 94 96 97 98 98 99 100 100 100 100 97 98 98 98 100 98 99 98 98 98 93 89
80 79 78 80 84 93 93 91 96 98 97 96 95 96 94 95 94 92 92 91 92 99 100 100 100 100 100 100 100 100 96 90 84 86 87 89 94 95 98 94 94 94 97
77 81 83 83 84 89 91 90 88 89 87 87 86 88 88 92 90 91 97 100 100 100 100 100 100 100 100 99 94 95 89 86 79 78 83 90 98 99 98 93 92 95 97
73 77 84 89 90 92 98 94 91 90 91 93 98 100 99 100 100 98 97 100 100 100 100 100 100 99 98 96 95 98 91 83 80 80 83 86 88 86 87 90 90 88 82
71 75 77 82 91 95 93 90 95 99 100 100 100 100 100 100 100 100 100 100 100 100 100 100 97 98 98 95 82 72 69 70 71 70 76 84 93 100 100 94 81 85 81
78 79 81 83 87 87 87 91 94 99 100 100 100 100 100 100 100 100 100 100 100 100 98 98 96 82 66 59 56 57 56 65 61 55 53 67 87 99 100 98 92 83 84
84 83 82 83 86 83 92 98 99 100 100 100 100 100 99 99 99 100 98 93 91 94 89 69 67 66 62 51 38 36 44 55 56 54 62 72 81 81 78 76 75 89 98
90 89 92 94 94 94 96 100 100 100 100 99 99 99 100 98 96 94 90 84 72 62 61 59 68 75 63 57 60 74 75 66 63 65 64 65 69 69 67 69 69 67 70
100 100 100 100 100 100 100 100 100 100 100 100 100 97 98 96 93 81 60 53 44 37 34 43 59 71 72 68 81 71 57 51 52 46 49 57 65 70 61 51 50 52 53
100 100 100 100 100 100 100 99 99 100 100 99 100 93 87 86 93 72 40 37 33 29 38 49 55 62 65 58 49 43 44 48 48 52 59 56 53 53 55 62 68 70 65
100 100 100 100 100 100 100 99 99 98 98 97 96 95 90 66 35 9 9 24 34 38 41 31 23 23 24 30 35 36 39 38 41 52 54 57 59 59 65 69 76 86 85
100 100 100 100 99 100 99 98 98 97 97 96 96 94 42 10 5 5 10 18 29 43 23 21 26 29 29 37 39 41 41 42 49 51 52 60 67 72 76 81 94 84 85
100 100 100 100 99 98 98 96 96 96 96 88 31 8 7 13 51 13 21 16 24 27 19 29 34 42 44 47 46 47 44 45 48 51 62 75 79 78 78 79 82 87 91
98 97 96 98 97 97 96 96 97 93 48 20 23 18 18 16 21 29 33 32 27 27 33 40 43 43 44 42 38 37 40 46 51 63 66 70 73 77 77 80 86 93 95
97 96 96 96 97 97 97 88 35 26 37 58 66 60 51 25 21 22 22 17 23 30 36 38 41 38 35 35 34 40 46 51 55 58 64 71 77 81 81 83 87 94 100
97 97 96 96 96 78 40 30 31 30 38 54 58 54 52 34 24 22 23 24 24 28 33 33 32 32 31 36 44 48 50 54 59 66 73 79 82 84 85 86 91 99 95
95 97 94 74 43 37 34 24 13 15 33 43 40 42 35 27 29 25 23 24 26 28 28 29 29 31 39 46 49 54 60 65 73 77 78 79 81 83 89 92 93 93 94
90 61 40 37 37 30 31 32 28 26 26 26 34 42 35 22 22 24 25 26 27 26 27 30 34 41 45 50 59 62 66 72 76 74 75 80 87 92 94 94 91 92 94
20 23 24 28 28 33 37 38 34 33 38 40 36 27 26 24 25 26 27 28 29 32 34 38 44 47 52 61 64 66 72 75 77 83 86 90 92 94 95 95 97 96 94
15 18 22 29 34 33 34 42 46 43 37 31 27 28 29 29 27 29 31 34 35 36 40 45 48 52 56 63 66 72 74 76 83 89 92 91 92 93 95 98 97 97 99
17 17 19 23 27 28 31 34 35 32 28 30 30 32 29 31 32 30 35 39 42 46 51 53 52 55 59 63 66 68 71 76 82 85 90 96 99 100 99 96 96 98 96
21 20 23 29 32 33 31 28 27 26 26 31 31 26 27 30 30 34 40 45 52 54 52 52 55 57 60 62 63 66 69 72 77 84 93 98 99 99 100 100 99 99 95

GFSGL_850_rhum_108.txt.gz
RH
95 98 96 98 94 93 88 92 99 100 100 100 100 100 100 100 93 88 92 91 89 90 79 76 74 72 78 76 75 72 72 83 95 81 81 81 90 93 97 98 100 100 92
53 87 100 97 96 91 92 93 89 89 93 100 100 100 94 91 85 91 92 91 89 84 78 77 73 81 83 80 79 78 83 91 99 99 98 100 100 98 97 94 98 100 97
44 68 92 100 100 100 98 97 95 96 94 92 89 91 84 84 84 85 88 86 84 79 76 75 84 90 84 83 86 93 100 100 100 100 99 98 99 98 99 94 97 99 100
50 65 78 93 96 95 87 91 96 95 92 93 92 89 87 86 85 82 80 79 83 90 92 90 88 88 92 95 95 99 100 100 98 100 99 98 100 100 98 94 88 87 83
54 61 72 88 92 93 88 87 90 84 82 81 83 85 91 94 88 85 83 82 86 89 97 99 98 98 100 100 100 100 100 100 100 100 97 97 90 82 83 84 82 78 75
58 63 74 74 98 92 91 90 90 94 90 88 88 93 96 100 100 96 97 99 98 100 100 100 100 100 100 100 100 100 99 97 98 94 92 90 92 87 89 84 82 80 80
57 69 72 78 90 93 92 95 99 94 93 91 98 100 100 100 98 98 100 100 100 100 100 100 100 100 100 100 98 95 93 96 95 95 86 81 82 82 75 73 75 80 78
76 68 74 82 91 96 100 98 94 95 95 91 100 100 100 100 100 99 100 100 100 100 100 100 100 100 100 98 100 99 99 94 78 69 68 75 76 73 80 85 88 81 62
98 92 77 80 91 96 100 99 100 93 95 96 100 100 100 98 99 95 98 100 100 100 100 100 99 100 99 99 97 93 68 63 62 54 48 49 71 92 90 85 60 56 47
86 94 94 86 89 94 99 100 100 100 100 100 100 100 100 100 100 100 100 100 100 100 99 99 98 98 97 91 54 40 36 35 32 34 38 48 58 70 73 61 54 47 50
90 90 94 93 91 95 96 100 100 100 100 100 100 100 100 100 100 100 100 100 99 96 96 97 96 82 30 16 17 25 26 38 32 31 30 29 25 21 19 21 27 39 46
99 92 93 97 100 100 100 100 100 100 100 100 100 100 100 100 100 100 99 98 98 91 94 81 43 10 14 33 32 31 32 24 19 16 16 15 17 19 21 24 27 29 36
100 100 100 100 100 100 100 100 100 100 100 100 100 100 100 100 98 98 99 96 94 60 31 23 33 74 61 30 15 15 15 13 14 15 18 21 25 29 33 30 31 34 36
100 100 100 100 100 100 100 100 100 100 100 100 100 100 100 99 96 96 68 18 13 17 45 79 71 35 18 18 17 15 15 18 21 24 27 30 33 33 36 43 48 48 45
100 100 100 100 100 100 100 100 100 99 99 98 94 95 96 94 95 92 48 25 34 48 29 22 19 19 16 17 18 20 24 25 24 28 32 34 39 43 45 48 53 58 64
100 100 100 100 100 100 100 100 99 98 98 98 96 95 95 75 30 51 37 36 19 17 14 12 13 16 18 21 23 24 24 26 32 36 40 44 48 52 54 55 58 62 67
99 100 100 100 100 99 96 93 94 98 97 96 83 36 12 40 18 11 12 10 13 15 10 12 16 20 22 23 24 26 30 34 40 42 47 51 55 58 61 63 66 70 72
99 100 98 98 96 97 97 96 95 94 93 90 90 85 68 35 28 17 14 12 12 15 16 20 22 23 23 25 29 33 37 40 43 49 54 59 63 66 67 70 73 77 79
96 97 97 97 97 97 96 95 95 66 31 28 46 56 50 18 13 11 13 14 15 18 23 24 25 26 28 31 36 38 41 45 50 55 60 64 68 72 73 76 78 78 80
96 96 96 96 96 96 94 58 28 36 54 51 34 27 20 15 13 16 20 19 18 20 22 23 25 27 33 37 41 45 49 52 55 59 65 69 72 75 77 80 81 83 81
96 96 96 96 86 41 24 25 28 30 40 36 32 32 26 18 16 17 17 18 20 20 22 24 29 35 39 44 47 50 52 55 60 66 68 69 73 77 80 82 85 87 88
96 95 72 29 27 24 18 20 28 27 32 28 33 32 25 17 16 17 20 22 24 25 27 31 39 42 45 46 48 51 54 58 66 68 67 70 76 80 81 86 87 88 90
71 29 20 20 14 11 13 20 28 32 31 27 25 22 22 20 22 23 25 27 29 31 35 40 44 47 46 46 50 52 55 63 68 66 67 74 77 82 88 89 90 89 89
26 22 17 20 24 27 30 31 32 29 26 21 19 20 21 23 26 29 31 34 38 40 42 46 48 47 46 48 50 55 63 64 63 67 73 77 82 89 93 94 96 93 92
23 25 29 34 31 25 24 25 25 23 19 17 18 20 21 24 28 33 37 41 43 44 44 44 45 46 46 47 52 57 57 60 64 68 73 81 90 94 97 96 96 93 92
19 20 20 22 21 21 20 19 20 19 18 20 22 23 25 28 32 36 42 45 45 45 45 46 46 46 47 51 52 53 58 59 62 67 73 82 92 95 97 96 93 93 90

GFSGL_850_rhum_111.txt.gz
RH
77 83 96 99 100 100 98 91 100 100 100 100 100 100 100 100 100 100 100 94 98 100 98 92 90 92 88 88 91 88 88 89 92 78 77 87 94 93 98 95 100 100 97
67 76 92 93 96 100 99 92 89 100 100 100 100 100 100 100 97 100 97 98 97 90 91 91 90 93 90 91 90 85 86 85 94 96 97 99 99 99 99 100 98 100 100
65 71 94 99 87 97 98 96 93 94 100 100 100 100 100 99 100 98 100 87 87 97 99 100 98 93 92 89 86 93 88 90 93 100 100 100 100 100 100 100 100 100 100
64 63 93 99 89 97 100 98 99 97 96 100 100 100 100 100 97 97 97 91 99 98 100 97 95 86 84 87 91 93 95 99 100 100 100 100 100 100 100 94 89 85 80
82 67 88 100 94 95 100 100 100 100 100 98 97 100 100 100 100 100 90 90 92 96 94 98 99 97 100 100 100 100 100 100 100 99 100 100 98 93 95 89 79 71 65
88 82 92 95 95 94 98 92 99 99 100 100 100 97 94 96 95 94 92 90 89 90 91 92 98 98 99 100 100 100 100 100 99 100 99 98 99 94 79 66 59 46 34
76 92 99 99 99 91 91 92 100 99 95 98 100 100 99 98 96 97 96 96 98 99 100 100 100 100 100 100 99 98 97 99 96 98 95 92 76 62 50 30 25 35 41
84 82 92 97 98 98 100 96 96 100 100 100 99 98 94 92 94 97 99 100 100 100 100 100 100 100 100 100 99 98 97 96 95 72 46 37 31 27 29 29 31 36 17
80 91 93 92 96 99 100 98 92 93 100 100 100 99 99 100 100 98 100 100 100 100 100 100 100 100 99 100 98 97 95 53 35 24 15 15 18 22 18 15 10 8 8
59 65 93 98 96 99 99 98 95 97 98 99 99 100 100 100 100 100 100 100 100 100 100 100 100 99 98 97 81 26 17 14 19 21 22 16 9 10 10 11 13 14 17
93 78 82 100 100 100 100 99 98 100 100 100 100 100 100 100 100 100 100 100 100 100 100 100 100 98 67 22 13 11 7 8 12 10 7 9 10 11 11 13 16 19 24
99 100 85 100 100 100 100 100 100 100 100 100 100 100 100 100 100 100 100 100 99 97 97 96 80 18 8 8 5 5 7 8 8 8 10 11 12 13 14 17 21 23 29
100 100 99 100 100 100 100 100 100 100 100 100 100 100 100 100 100 100 100 98 99 96 84 52 20 17 14 7 7 7 9 9 11 13 13 15 16 20 23 23 25 28 28
100 100 100 100 100 100 100 100 99 100 100 97 98 99 98 99 98 96 94 97 95 80 23 14 12 9 9 8 10 10 13 15 14 14 17 20 24 27 30 32 32 34 34
100 100 100 100 100 100 100 100 100 100 100 98 99 97 96 96 97 98 94 63 28 30 16 19 16 13 11 12 16 18 16 16 16 19 22 25 28 30 34 37 41 45 51
100 100 100 100 100 100 100 100 99 98 98 98 97 98 95 97 94 71 38 22 19 17 13 14 14 16 18 19 18 17 18 19 21 25 30 34 36 39 42 46 50 53 56
100 100 100 100 100 100 100 97 93 99 97 95 96 96 75 37 64 51 12 10 15 19 13 13 15 19 20 19 19 20 21 25 32 36 38 39 44 51 52 55 59 63 63
100 99 100 100 99 97 94 91 92 94 94 95 82 31 39 21 11 13 14 12 14 18 14 17 20 20 19 21 21 24 29 36 39 40 43 49 54 56 59 65 70 73 74
99 99 97 96 97 97 97 96 96 96 95 72 54 49 36 14 16 17 19 16 14 15 17 19 20 21 23 24 26 31 36 39 41 46 52 57 59 62 68 75 78 79 79
97 97 97 96 96 96 95 95 95 94 75 61 49 31 19 14 13 14 17 15 15 16 19 20 21 25 27 29 32 36 39 43 48 54 58 61 65 72 76 78 82 82 80
96 97 96 96 96 96 95 66 30 24 29 26 20 19 17 14 14 15 13 15 18 19 20 22 25 31 33 35 38 38 42 46 52 58 61 64 70 72 78 83 83 83 80
96 96 96 91 67 32 22 21 22 20 19 19 21 24 25 17 14 14 17 18 19 22 24 28 34 36 37 39 39 42 46 51 53 57 63 67 70 76 82 82 82 83 80
94 62 30 23 24 22 22 22 19 20 20 21 21 19 19 15 16 18 21 24 26 30 33 37 39 39 38 39 42 44 49 52 54 56 59 65 73 80 80 80 86 84 82
30 20 16 14 13 17 18 18 20 21 20 19 17 16 17 19 22 26 29 32 34 36 37 38 40 42 44 44 44 46 51 52 55 57 62 67 74 79 79 83 88 86 85
23 17 14 15 16 16 17 20 20 19 17 16 17 19 21 25 30 33 38 39 39 39 40 42 44 45 45 44 46 48 50 52 55 58 60 64 73 81 84 85 90 88 87
19 17 17 19 19 19 19 18 18 18 18 20 22 25 28 31 35 38 38 39 41 42 45 45 45 46 47 48 48 49 51 53 55 55 57 62 70 80 84 87 91 93 88

GFSGL_850_rhum_114.txt.gz
RH
82 94 97 98 98 100 98 97 100 100 98 99 100 100 100 99 100 100 99 92 83 82 88 92 94 100 99 90 88 91 94 94 98 96 90 96 94 98 100 100 100 100 100
90 99 96 100 99 99 96 92 98 100 99 100 100 100 100 100 100 99 100 100 100 94 96 100 100 100 97 91 99 99 97 95 98 92 99 100 100 100 100 100 100 100 100
80 100 97 99 100 97 96 93 96 100 100 99 99 100 99 100 100 100 100 98 97 93 99 100 98 100 96 99 99 96 94 96 100 100 100 100 100 98 100 98 100 100 99
80 99 98 99 99 98 98 96 93 97 98 100 100 100 100 100 100 100 99 100 100 100 96 98 100 100 100 100 96 93 96 100 100 100 100 100 100 100 100 98 99 97 89
86 98 97 99 100 99 100 99 96 97 98 100 100 100 100 100 100 100 100 100 100 100 99 100 100 100 96 96 98 99 100 100 100 100 100 100 100 100 98 92 86 72 54
79 93 100 97 99 100 100 100 100 99 99 100 99 99 100 100 100 100 99 100 100 100 99 98 98 96 99 100 99 100 100 100 99 99 99 99 100 96 86 56 28 9 6
94 85 98 98 97 98 100 100 98 100 97 99 99 99 100 100 100 100 100 100 100 100 100 98 95 97 97 100 100 100 100 100 100 98 98 96 90 67 25 12 7 6 6
99 94 92 100 100 98 100 100 99 100 100 100 100 100 99 100 100 100 100 100 100 100 100 100 100 100 100 100 100 100 100 99 98 92 54 21 9 10 7 5 5 6 7
98 88 85 83 95 99 98 100 100 100 100 99 99 99 99 97 100 100 100 100 100 100 100 100 100 100 100 99 100 98 98 90 45 13 7 7 6 6 7 7 6 6 6
100 94 88 86 82 88 98 99 99 100 99 100 100 100 98 98 96 100 100 100 100 100 100 100 100 100 100 100 98 73 45 26 13 11 8 7 8 8 8 8 9 10 13
99 100 100 100 96 100 100 100 98 96 100 100 100 100 100 100 100 100 100 100 100 100 100 100 100 99 94 75 46 21 7 6 6 6 6 8 9 8 11 12 14 16 19
100 100 100 100 100 100 100 100 100 100 100 100 100 100 100 100 100 100 100 100 100 100 99 98 97 96 96 49 9 5 6 7 8 9 9 9 11 12 12 14 18 22 29
99 98 100 100 100 99 100 100 100 100 100 100 100 100 100 100 100 100 100 100 100 97 96 97 95 60 8 5 5 6 8 9 10 10 11 13 13 15 18 22 24 24 27
100 100 100 100 99 97 100 100 100 100 100 100 98 98 99 99 98 99 100 98 97 97 93 47 12 12 9 7 10 11 10 11 12 13 14 16 21 25 28 29 30 30 27
100 100 100 100 100 99 100 100 100 100 99 100 100 100 97 96 96 97 97 97 93 89 72 44 17 10 9 10 11 12 12 14 15 17 20 23 28 32 36 39 41 44 48
100 100 100 100 100 100 100 100 100 100 98 97 96 90 95 96 97 95 96 95 81 38 15 10 9 10 10 12 13 14 15 16 18 23 28 32 34 37 42 46 50 52 52
100 100 100 100 100 99 100 100 99 100 100 98 97 97 96 95 96 87 44 15 13 13 9 9 10 11 12 14 16 17 18 21 26 30 31 36 44 47 48 52 54 53 54
100 99 100 100 100 100 98 96 92 92 94 95 96 96 96 89 38 11 10 10 12 15 11 11 12 14 16 17 18 21 26 30 34 36 41 44 48 51 51 53 57 64 69
100 100 100 99 100 99 98 97 96 96 95 94 94 95 82 19 13 12 14 12 10 12 13 14 16 18 19 20 24 27 32 36 40 44 48 49 50 50 52 61 68 73 74
96 96 97 96 97 96 96 95 96 96 96 95 64 24 13 12 11 12 15 13 13 13 15 17 19 21 23 26 29 33 37 42 48 50 50 52 54 52 57 67 73 77 76
96 96 96 96 96 96 96 96 96 96 62 23 17 18 14 12 12 13 14 15 16 17 18 21 24 26 28 31 33 37 42 44 45 49 53 54 53 55 64 71 76 83 81
96 96 96 96 97 95 92 78 53 30 23 16 16 18 19 14 12 13 15 17 18 20 23 27 29 30 32 36 37 38 41 45 48 49 51 53 57 64 68 73 80 87 83
96 95 95 94 84 61 30 26 22 18 17 15 16 15 17 14 15 18 20 22 24 26 27 29 32 35 36 36 38 42 45 45 45 44 47 52 59 66 72 79 85 87 84
95 91 65 34 25 24 22 20 19 18 17 16 16 16 17 19 21 23 25 27 29 31 32 34 36 37 37 39 41 42 42 43 43 45 47 52 59 66 75 83 86 88 87
27 23 20 18 22 20 18 19 20 19 17 16 16 18 20 23 26 28 31 32 33 34 35 36 38 40 41 41 42 42 43 45 47 47 50 51 56 66 77 85 85 84 87
15 14 15 18 19 20 20 20 19 18 18 19 20 21 24 26 28 29 30 32 34 37 38 40 41 41 41 43 44 46 47 48 50 51 50 51 55 64 74 84 87 86 87